FIN9T EFHK-EGLL

Flight info

Callsign FIN9T
Flight time 2h 32m
Altitude 35000
Route ADIVO Y365 POGOK DCT TIPIX DCT UPGAS DCT TIPAN DCT WECOW DCT BINBO DCT AKOKO N866 BUKUT P7 BARMI
Aircraft A359/H-SDE2E3GHIJ3J4J5LM1ORWXY/LB1D1

Departure

Time 2026-05-07 18:29
Airport Helsinki Vantaa Airport (EFHK)

Arrival

Time 2026-05-07 21:02
Airport London Heathrow Airport (EGLL)
Time Latitude Longitude Altitude Speed Heading
2026-05-07 18:01 60.31335 24.95745 168 ft 0 kts 319°
2026-05-07 18:14 60.31319 24.95773 168 ft 4 kts 318°
2026-05-07 18:14 60.31299 24.95810 168 ft 4 kts 313°
2026-05-07 18:14 60.31289 24.95838 168 ft 2 kts 285°
2026-05-07 18:15 60.31288 24.95860 168 ft 2 kts 251°
2026-05-07 18:15 60.31293 24.95880 168 ft 2 kts 235°
2026-05-07 18:15 60.31299 24.95897 168 ft 1 kts 231°
2026-05-07 18:15 60.31301 24.95903 168 ft 2 kts 230°
2026-05-07 18:16 60.31262 24.95800 168 ft 0 kts 231°
2026-05-07 18:18 60.31256 24.95790 168 ft 2 kts 224°
2026-05-07 18:19 60.31225 24.95730 168 ft 10 kts 225°
2026-05-07 18:19 60.31168 24.95588 168 ft 13 kts 251°
2026-05-07 18:19 60.31208 24.95433 167 ft 14 kts 319°
2026-05-07 18:19 60.31241 24.95375 167 ft 0 kts 318°
2026-05-07 18:20 60.31257 24.95346 167 ft 6 kts 317°
2026-05-07 18:21 60.31299 24.95271 167 ft 11 kts 318°
2026-05-07 18:21 60.31362 24.95152 167 ft 13 kts 317°
2026-05-07 18:21 60.31405 24.95061 167 ft 15 kts 311°
2026-05-07 18:21 60.31455 24.94974 168 ft 12 kts 339°
2026-05-07 18:22 60.31520 24.95050 168 ft 12 kts 54°
2026-05-07 18:22 60.31530 24.95079 168 ft 0 kts 53°
2026-05-07 18:22 60.31572 24.95173 168 ft 9 kts 48°
2026-05-07 18:22 60.31604 24.95244 168 ft 11 kts 47°
2026-05-07 18:23 60.31660 24.95370 168 ft 13 kts 48°
2026-05-07 18:23 60.31730 24.95524 168 ft 16 kts 47°
2026-05-07 18:23 60.31810 24.95698 168 ft 18 kts 47°
2026-05-07 18:23 60.31889 24.95873 168 ft 15 kts 47°
2026-05-07 18:24 60.31949 24.95968 168 ft 3 kts 354°
2026-05-07 18:24 60.31969 24.95943 168 ft 4 kts 325°
2026-05-07 18:24 60.31998 24.95896 168 ft 6 kts 319°
2026-05-07 18:24 60.32005 24.95882 168 ft 0 kts 319°
2026-05-07 18:25 60.32021 24.95854 169 ft 8 kts 317°
2026-05-07 18:25 60.32102 24.95707 168 ft 24 kts 318°
2026-05-07 18:25 60.32237 24.95457 167 ft 27 kts 317°
2026-05-07 18:26 60.32374 24.95255 167 ft 22 kts 337°
2026-05-07 18:26 60.32526 24.95151 167 ft 24 kts 341°
2026-05-07 18:26 60.32689 24.95045 167 ft 26 kts 342°
2026-05-07 18:26 60.32838 24.94949 167 ft 14 kts 342°
2026-05-07 18:27 60.32932 24.94848 167 ft 17 kts 314°
2026-05-07 18:27 60.33020 24.94678 168 ft 18 kts 317°
2026-05-07 18:27 60.33110 24.94503 176 ft 15 kts 314°
2026-05-07 18:27 60.33104 24.94373 179 ft 8 kts 232°
2026-05-07 18:28 60.33087 24.94333 181 ft 0 kts 227°
2026-05-07 18:28 60.33081 24.94321 181 ft 9 kts 227°
2026-05-07 18:29 60.32872 24.93865 182 ft 80 kts 227°
2026-05-07 18:29 60.32348 24.92701 166 ft 142 kts 226°
2026-05-07 18:29 60.31587 24.91031 473 ft 169 kts 227°
2026-05-07 18:29 60.30873 24.89177 1319 ft 164 kts 243°
2026-05-07 18:30 60.30659 24.86957 2092 ft 168 kts 276°
2026-05-07 18:30 60.30903 24.84527 2444 ft 192 kts 286°
2026-05-07 18:30 60.31256 24.81786 2891 ft 209 kts 287°
2026-05-07 18:30 60.31653 24.78825 3340 ft 231 kts 286°
2026-05-07 18:31 60.31823 24.75473 3891 ft 247 kts 271°
2026-05-07 18:31 60.31751 24.71943 4672 ft 254 kts 269°
2026-05-07 18:31 60.31649 24.68343 5485 ft 259 kts 269°
2026-05-07 18:31 60.31549 24.64686 6391 ft 262 kts 269°
2026-05-07 18:32 60.31454 24.61047 7292 ft 264 kts 269°
2026-05-07 18:32 60.31361 24.57343 8286 ft 264 kts 269°
2026-05-07 18:32 60.31269 24.53627 9291 ft 265 kts 268°
2026-05-07 18:32 60.31172 24.49895 10254 ft 267 kts 268°
2026-05-07 18:33 60.31071 24.46050 10820 ft 284 kts 268°
2026-05-07 18:33 60.30964 24.41927 11244 ft 304 kts 268°
2026-05-07 18:33 60.30849 24.37531 11692 ft 321 kts 268°
2026-05-07 18:33 60.30728 24.32980 12461 ft 327 kts 268°
2026-05-07 18:34 60.30604 24.28392 13412 ft 328 kts 268°
2026-05-07 18:34 60.30480 24.23839 14296 ft 329 kts 268°
2026-05-07 18:34 60.30351 24.19154 15028 ft 334 kts 268°
2026-05-07 18:34 60.30222 24.14521 15842 ft 336 kts 268°
2026-05-07 18:35 60.30088 24.09772 16821 ft 335 kts 268°
2026-05-07 18:35 60.29954 24.05068 17709 ft 337 kts 268°
2026-05-07 18:35 60.29810 24.00391 18519 ft 340 kts 266°
2026-05-07 18:35 60.29504 23.95638 19229 ft 343 kts 262°
2026-05-07 18:36 60.29062 23.90885 19950 ft 346 kts 260°
2026-05-07 18:36 60.28550 23.86121 20685 ft 349 kts 259°
2026-05-07 18:36 60.28009 23.81347 21404 ft 351 kts 258°
2026-05-07 18:36 60.27457 23.76529 22121 ft 354 kts 258°
2026-05-07 18:37 60.26907 23.71692 22853 ft 356 kts 258°
2026-05-07 18:37 60.26358 23.66807 23565 ft 359 kts 258°
2026-05-07 18:37 60.25810 23.61889 24146 ft 362 kts 258°
2026-05-07 18:37 60.25258 23.56908 24664 ft 366 kts 258°
2026-05-07 18:38 60.24701 23.51882 25182 ft 370 kts 258°
2026-05-07 18:38 60.24136 23.46799 25723 ft 373 kts 258°
2026-05-07 18:38 60.23566 23.41685 26267 ft 377 kts 258°
2026-05-07 18:38 60.22993 23.36570 26781 ft 380 kts 258°
2026-05-07 18:39 60.22407 23.31366 27353 ft 383 kts 259°
2026-05-07 18:39 60.21812 23.26097 27908 ft 386 kts 259°
2026-05-07 18:39 60.21212 23.20810 28417 ft 390 kts 258°
2026-05-07 18:39 60.20605 23.15470 28903 ft 393 kts 258°
2026-05-07 18:40 60.19992 23.10100 29294 ft 397 kts 258°
2026-05-07 18:40 60.19366 23.04641 29622 ft 404 kts 258°
2026-05-07 18:40 60.18730 22.99113 30110 ft 407 kts 258°
2026-05-07 18:40 60.18087 22.93562 30525 ft 410 kts 258°
2026-05-07 18:41 60.17436 22.87957 30866 ft 413 kts 258°
2026-05-07 18:41 60.16777 22.82316 31190 ft 417 kts 258°
2026-05-07 18:41 60.16109 22.76612 31505 ft 421 kts 258°
2026-05-07 18:41 60.15433 22.70858 31830 ft 424 kts 258°
2026-05-07 18:42 60.14750 22.65079 32135 ft 427 kts 258°
2026-05-07 18:42 60.14059 22.59250 32428 ft 431 kts 258°
2026-05-07 18:42 60.13362 22.53377 32715 ft 434 kts 258°
2026-05-07 18:42 60.12665 22.47555 33030 ft 436 kts 258°
2026-05-07 18:43 60.11954 22.41645 33462 ft 436 kts 258°
2026-05-07 18:43 60.11232 22.35666 33849 ft 436 kts 258°
2026-05-07 18:43 60.10523 22.29823 34115 ft 438 kts 258°
2026-05-07 18:44 60.09074 22.17949 34145 ft 438 kts 258°
2026-05-07 18:44 60.07616 22.06093 34133 ft 438 kts 257°
2026-05-07 18:45 60.06145 21.94226 34146 ft 438 kts 257°
2026-05-07 18:45 60.04666 21.82388 34154 ft 438 kts 257°
2026-05-07 18:46 60.03176 21.70553 34179 ft 438 kts 258°
2026-05-07 18:46 60.01678 21.58762 34160 ft 437 kts 258°
2026-05-07 18:47 60.00170 21.46975 34157 ft 437 kts 258°
2026-05-07 18:47 59.98398 21.35340 34159 ft 439 kts 252°
2026-05-07 18:48 59.96205 21.24006 34164 ft 440 kts 251°
2026-05-07 18:48 59.93924 21.12668 34165 ft 440 kts 251°
2026-05-07 18:49 59.91633 21.01360 34163 ft 440 kts 251°
2026-05-07 18:49 59.89339 20.90055 34160 ft 440 kts 251°
2026-05-07 18:50 59.87042 20.78780 34163 ft 438 kts 251°
2026-05-07 18:50 59.84761 20.67638 34165 ft 437 kts 251°
2026-05-07 18:51 59.82455 20.56433 34168 ft 437 kts 251°
2026-05-07 18:51 59.80136 20.45226 34174 ft 438 kts 251°
2026-05-07 18:52 59.77813 20.34065 34170 ft 438 kts 251°
2026-05-07 18:52 59.75480 20.22915 34171 ft 439 kts 251°
2026-05-07 18:53 59.73141 20.11794 34172 ft 439 kts 251°
2026-05-07 18:53 59.70776 20.00614 34188 ft 440 kts 251°
2026-05-07 18:54 59.68407 19.89487 34177 ft 438 kts 251°
2026-05-07 18:54 59.66028 19.78366 34177 ft 437 kts 251°
2026-05-07 18:55 59.63648 19.67294 34179 ft 437 kts 251°
2026-05-07 18:55 59.61270 19.56287 34183 ft 438 kts 251°
2026-05-07 18:56 59.58868 19.45236 34140 ft 437 kts 251°
2026-05-07 18:56 59.56454 19.34178 34177 ft 440 kts 251°
2026-05-07 18:57 59.54020 19.23096 34181 ft 441 kts 250°
2026-05-07 18:57 59.51574 19.12017 34181 ft 441 kts 250°
2026-05-07 18:58 59.49119 19.00958 34183 ft 441 kts 250°
2026-05-07 18:58 59.46652 18.89903 34179 ft 441 kts 250°
2026-05-07 18:59 59.44195 18.78949 34179 ft 441 kts 250°
2026-05-07 18:59 59.41713 18.67936 34177 ft 441 kts 250°
2026-05-07 19:00 59.39215 18.56913 34172 ft 444 kts 250°
2026-05-07 19:00 59.36690 18.45825 34170 ft 445 kts 250°
2026-05-07 19:01 59.34153 18.34748 34166 ft 445 kts 250°
2026-05-07 19:01 59.31608 18.23698 34161 ft 445 kts 250°
2026-05-07 19:02 59.29056 18.12665 34158 ft 445 kts 250°
2026-05-07 19:02 59.26502 18.01686 34157 ft 445 kts 250°
2026-05-07 19:03 59.23913 17.90608 34157 ft 445 kts 250°
2026-05-07 19:03 59.21341 17.79656 34166 ft 448 kts 249°
2026-05-07 19:04 59.18722 17.68560 34164 ft 450 kts 249°
2026-05-07 19:04 59.16087 17.57464 34164 ft 451 kts 249°
2026-05-07 19:05 59.13444 17.46392 34164 ft 451 kts 249°
2026-05-07 19:05 59.10792 17.35337 34164 ft 451 kts 249°
2026-05-07 19:06 59.08128 17.24285 34164 ft 451 kts 249°
2026-05-07 19:06 59.04134 17.07819 34134 ft 451 kts 249°
2026-05-07 19:07 59.01435 16.96753 34166 ft 455 kts 249°
2026-05-07 19:07 58.98712 16.85654 34165 ft 456 kts 248°
2026-05-07 19:08 58.95978 16.74568 34149 ft 456 kts 248°
2026-05-07 19:08 58.93694 16.65355 34178 ft 455 kts 249°
2026-05-07 19:09 58.90948 16.54324 34176 ft 454 kts 248°
2026-05-07 19:09 58.88216 16.43305 34157 ft 454 kts 249°
2026-05-07 19:10 58.85501 16.32254 34151 ft 454 kts 249°
2026-05-07 19:10 58.82789 16.21263 34158 ft 459 kts 248°
2026-05-07 19:11 58.80020 16.10124 34152 ft 460 kts 248°
2026-05-07 19:11 58.77238 15.99011 34153 ft 460 kts 248°
2026-05-07 19:12 58.74445 15.87916 34147 ft 459 kts 248°
2026-05-07 19:12 58.71651 15.76865 34132 ft 458 kts 248°
2026-05-07 19:13 58.68869 15.65911 34139 ft 458 kts 248°
2026-05-07 19:13 58.66059 15.54905 34125 ft 459 kts 248°
2026-05-07 19:14 58.63230 15.43869 34136 ft 463 kts 247°
2026-05-07 19:14 58.60369 15.32772 34136 ft 464 kts 247°
2026-05-07 19:15 58.57493 15.21678 34136 ft 464 kts 247°
2026-05-07 19:15 58.54611 15.10613 34133 ft 465 kts 246°
2026-05-07 19:16 58.51716 14.99548 34133 ft 465 kts 246°
2026-05-07 19:16 58.48826 14.88558 34136 ft 465 kts 246°
2026-05-07 19:17 58.45910 14.77526 34116 ft 465 kts 246°
2026-05-07 19:17 58.42974 14.66463 34132 ft 468 kts 246°
2026-05-07 19:18 58.40012 14.55368 34129 ft 469 kts 246°
2026-05-07 19:18 58.37042 14.44299 34138 ft 469 kts 246°
2026-05-07 19:19 58.34082 14.33314 34140 ft 469 kts 245°
2026-05-07 19:19 58.31095 14.22287 34141 ft 469 kts 245°
2026-05-07 19:20 58.28100 14.11284 34144 ft 468 kts 245°
2026-05-07 19:20 58.25096 14.00295 34145 ft 469 kts 245°
2026-05-07 19:21 58.22067 13.89270 34144 ft 472 kts 245°
2026-05-07 19:21 58.19015 13.78215 34145 ft 473 kts 245°
2026-05-07 19:22 58.15954 13.67188 34147 ft 473 kts 245°
2026-05-07 19:22 58.12905 13.56256 34133 ft 471 kts 245°
2026-05-07 19:23 58.09838 13.45306 34133 ft 471 kts 245°
2026-05-07 19:23 58.06765 13.34389 34135 ft 471 kts 244°
2026-05-07 19:24 58.03678 13.23473 34144 ft 471 kts 244°
2026-05-07 19:24 58.00583 13.12581 34148 ft 471 kts 244°
2026-05-07 19:25 57.97480 13.01712 34148 ft 471 kts 244°
2026-05-07 19:25 57.94366 12.90857 34134 ft 471 kts 244°
2026-05-07 19:26 57.91249 12.80042 34138 ft 469 kts 244°
2026-05-07 19:26 57.88132 12.69282 34137 ft 469 kts 244°
2026-05-07 19:27 57.85022 12.58589 34120 ft 469 kts 244°
2026-05-07 19:27 57.81873 12.47807 34134 ft 473 kts 243°
2026-05-07 19:28 57.78692 12.36975 34131 ft 474 kts 243°
2026-05-07 19:28 57.75500 12.26156 34130 ft 474 kts 243°
2026-05-07 19:29 57.72303 12.15370 34160 ft 474 kts 243°
2026-05-07 19:29 57.69101 12.04617 34161 ft 472 kts 243°
2026-05-07 19:30 57.65900 11.93917 34159 ft 472 kts 243°
2026-05-07 19:30 57.62689 11.83228 34141 ft 473 kts 243°
2026-05-07 19:31 57.59470 11.72561 34142 ft 476 kts 242°
2026-05-07 19:31 57.56206 11.61799 34146 ft 477 kts 242°
2026-05-07 19:32 57.52930 11.51045 34145 ft 477 kts 242°
2026-05-07 19:32 57.49648 11.40322 34149 ft 477 kts 242°
2026-05-07 19:33 57.46355 11.29612 34149 ft 477 kts 242°
2026-05-07 19:33 57.43051 11.18915 34149 ft 477 kts 242°
2026-05-07 19:34 57.39751 11.08275 34147 ft 481 kts 242°
2026-05-07 19:34 57.36401 10.97525 34152 ft 482 kts 241°
2026-05-07 19:35 57.33038 10.86785 34154 ft 482 kts 241°
2026-05-07 19:35 57.29663 10.76055 34158 ft 482 kts 241°
2026-05-07 19:36 57.26288 10.65371 34154 ft 480 kts 241°
2026-05-07 19:36 57.22917 10.54752 34153 ft 479 kts 241°
2026-05-07 19:37 57.19534 10.44138 34150 ft 481 kts 240°
2026-05-07 19:37 57.16121 10.33480 34152 ft 483 kts 240°
2026-05-07 19:38 57.12717 10.22896 34154 ft 483 kts 240°
2026-05-07 19:38 57.09279 10.12256 34154 ft 483 kts 240°
2026-05-07 19:39 57.05836 10.01648 34157 ft 483 kts 240°
2026-05-07 19:39 57.02390 9.91077 34155 ft 482 kts 240°
2026-05-07 19:40 56.98931 9.80512 34153 ft 482 kts 239°
2026-05-07 19:40 56.95485 9.70033 34152 ft 484 kts 239°
2026-05-07 19:41 56.91991 9.59458 34139 ft 485 kts 239°
2026-05-07 19:41 56.88493 9.48916 34137 ft 485 kts 239°
2026-05-07 19:42 56.84982 9.38381 34141 ft 485 kts 239°
2026-05-07 19:42 56.81468 9.27882 34137 ft 484 kts 239°
2026-05-07 19:43 56.77948 9.17414 34140 ft 484 kts 239°
2026-05-07 19:43 56.74443 9.07034 34137 ft 484 kts 238°
2026-05-07 19:44 56.70898 8.96581 34141 ft 484 kts 238°
2026-05-07 19:44 56.67350 8.86164 34142 ft 484 kts 238°
2026-05-07 19:45 56.63791 8.75760 34142 ft 485 kts 238°
2026-05-07 19:45 56.60225 8.65381 34146 ft 483 kts 238°
2026-05-07 19:46 56.56656 8.55038 34142 ft 483 kts 238°
2026-05-07 19:46 56.53079 8.44715 34145 ft 484 kts 238°
2026-05-07 19:47 56.49483 8.34384 34143 ft 485 kts 238°
2026-05-07 19:47 56.45866 8.24035 34148 ft 497 kts 238°
2026-05-07 19:48 56.42145 8.13433 34148 ft 500 kts 237°
2026-05-07 19:48 56.38408 8.02833 34149 ft 499 kts 237°
2026-05-07 19:49 56.34669 7.92274 34149 ft 499 kts 237°
2026-05-07 19:49 56.30921 7.81739 34147 ft 500 kts 237°
2026-05-07 19:50 56.27160 7.71210 34145 ft 500 kts 237°
2026-05-07 19:50 56.23385 7.60689 34145 ft 500 kts 237°
2026-05-07 19:51 56.19600 7.50184 34146 ft 500 kts 237°
2026-05-07 19:51 56.15813 7.39718 34150 ft 499 kts 236°
2026-05-07 19:52 56.12046 7.29354 34149 ft 498 kts 236°
2026-05-07 19:52 56.08252 7.18958 34145 ft 499 kts 236°
2026-05-07 19:53 56.04430 7.08533 34150 ft 501 kts 236°
2026-05-07 19:53 56.00600 6.98130 34142 ft 501 kts 236°
2026-05-07 19:54 55.96756 6.87730 34142 ft 501 kts 236°
2026-05-07 19:54 55.92922 6.77405 34146 ft 501 kts 236°
2026-05-07 19:55 55.89074 6.67080 34141 ft 499 kts 236°
2026-05-07 19:55 55.85220 6.56789 34143 ft 499 kts 236°
2026-05-07 19:56 55.81364 6.46536 34141 ft 499 kts 235°
2026-05-07 19:56 55.77497 6.36294 34141 ft 499 kts 235°
2026-05-07 19:57 55.74275 6.27794 34143 ft 499 kts 235°
2026-05-07 19:57 55.70395 6.17596 34143 ft 499 kts 235°
2026-05-07 19:58 55.66509 6.07425 34144 ft 497 kts 235°
2026-05-07 19:58 55.62629 5.97310 34143 ft 498 kts 234°
2026-05-07 19:59 55.58714 5.87149 34143 ft 499 kts 234°
2026-05-07 19:59 55.54815 5.77070 34143 ft 500 kts 234°
2026-05-07 20:00 55.50881 5.66938 34146 ft 500 kts 234°
2026-05-07 20:00 55.46940 5.56832 34146 ft 500 kts 234°
2026-05-07 20:01 55.42990 5.46748 34143 ft 498 kts 234°
2026-05-07 20:01 55.39049 5.36727 34141 ft 499 kts 233°
2026-05-07 20:02 55.35084 5.26689 34140 ft 500 kts 233°
2026-05-07 20:02 55.31136 5.16731 34141 ft 500 kts 233°
2026-05-07 20:03 55.27131 5.06752 34138 ft 499 kts 231°
2026-05-07 20:03 55.22220 4.98272 34139 ft 495 kts 214°
2026-05-07 20:04 55.16325 4.92104 34140 ft 493 kts 207°
2026-05-07 20:04 55.10258 4.86452 34140 ft 495 kts 206°
2026-05-07 20:05 55.04158 4.80840 34130 ft 495 kts 206°
2026-05-07 20:05 54.98067 4.75188 34130 ft 495 kts 206°
2026-05-07 20:06 54.92017 4.69555 34130 ft 496 kts 206°
2026-05-07 20:06 54.85926 4.63896 34130 ft 497 kts 206°
2026-05-07 20:07 54.79809 4.58235 34132 ft 498 kts 206°
2026-05-07 20:07 54.73694 4.52598 34128 ft 498 kts 206°
2026-05-07 20:08 54.67569 4.46971 34126 ft 498 kts 206°
2026-05-07 20:08 54.61436 4.41355 34131 ft 499 kts 205°
2026-05-07 20:09 54.55294 4.35743 34133 ft 499 kts 205°
2026-05-07 20:10 54.46068 4.27367 34123 ft 499 kts 205°
2026-05-07 20:10 54.39967 4.21850 34128 ft 498 kts 205°
2026-05-07 20:11 54.33834 4.16322 34125 ft 498 kts 205°
2026-05-07 20:11 54.27692 4.10804 34125 ft 498 kts 205°
2026-05-07 20:12 54.21541 4.05297 34124 ft 498 kts 205°
2026-05-07 20:12 54.15398 3.99816 34129 ft 498 kts 205°
2026-05-07 20:13 54.09261 3.94358 34130 ft 497 kts 205°
2026-05-07 20:13 54.03158 3.88948 34130 ft 497 kts 205°
2026-05-07 20:14 53.97014 3.83515 34126 ft 497 kts 205°
2026-05-07 20:14 53.90869 3.78102 34130 ft 497 kts 205°
2026-05-07 20:15 53.84734 3.72723 34127 ft 496 kts 205°
2026-05-07 20:15 53.78605 3.67366 34130 ft 496 kts 205°
2026-05-07 20:16 53.72476 3.62024 34130 ft 495 kts 205°
2026-05-07 20:16 53.66389 3.56737 34132 ft 494 kts 206°
2026-05-07 20:17 53.60280 3.51447 34123 ft 493 kts 206°
2026-05-07 20:17 53.54180 3.46180 34126 ft 493 kts 206°
2026-05-07 20:18 53.48072 3.40925 34128 ft 493 kts 206°
2026-05-07 20:18 53.41958 3.35681 34122 ft 493 kts 206°
2026-05-07 20:19 53.35855 3.30456 34121 ft 493 kts 206°
2026-05-07 20:19 53.29741 3.25250 34106 ft 493 kts 206°
2026-05-07 20:20 53.23627 3.20062 34105 ft 493 kts 206°
2026-05-07 20:20 53.17549 3.14911 34105 ft 492 kts 206°
2026-05-07 20:21 53.11453 3.09771 34106 ft 491 kts 206°
2026-05-07 20:21 53.05356 3.04644 34118 ft 491 kts 206°
2026-05-07 20:22 52.99252 2.99529 34113 ft 491 kts 206°
2026-05-07 20:22 52.93160 2.94438 34113 ft 490 kts 207°
2026-05-07 20:23 52.87079 2.89365 34111 ft 489 kts 207°
2026-05-07 20:23 52.80992 2.84314 34110 ft 489 kts 207°
2026-05-07 20:24 52.74893 2.79266 34111 ft 489 kts 207°
2026-05-07 20:24 52.68815 2.74250 34110 ft 488 kts 207°
2026-05-07 20:25 52.62736 2.69253 34108 ft 488 kts 207°
2026-05-07 20:25 52.56699 2.64303 34108 ft 488 kts 207°
2026-05-07 20:26 52.50618 2.59332 34108 ft 487 kts 207°
2026-05-07 20:26 52.44553 2.54384 34106 ft 487 kts 208°
2026-05-07 20:27 52.38525 2.49490 33718 ft 476 kts 207°
2026-05-07 20:27 52.35556 2.47085 32763 ft 476 kts 208°
2026-05-07 20:27 52.32590 2.44684 31974 ft 474 kts 208°
2026-05-07 20:27 52.29649 2.42308 31319 ft 469 kts 208°
2026-05-07 20:28 52.26738 2.39959 30709 ft 464 kts 208°
2026-05-07 20:28 52.23884 2.37661 30094 ft 460 kts 208°
2026-05-07 20:28 52.21024 2.35360 29403 ft 455 kts 208°
2026-05-07 20:28 52.18190 2.33134 28709 ft 451 kts 205°
2026-05-07 20:29 52.15157 2.31804 28021 ft 452 kts 188°
2026-05-07 20:29 52.12016 2.31890 27368 ft 453 kts 175°
2026-05-07 20:29 52.08917 2.32714 26736 ft 450 kts 172°
2026-05-07 20:29 52.05852 2.33648 26257 ft 446 kts 172°
2026-05-07 20:30 52.02810 2.34586 26110 ft 439 kts 172°
2026-05-07 20:30 51.99857 2.35249 26094 ft 419 kts 179°
2026-05-07 20:30 51.97014 2.35207 26092 ft 398 kts 188°
2026-05-07 20:30 51.94364 2.34407 26092 ft 378 kts 199°
2026-05-07 20:31 51.91972 2.32905 26093 ft 360 kts 209°
2026-05-07 20:31 51.89880 2.30800 26098 ft 351 kts 219°
2026-05-07 20:31 51.88083 2.28156 26092 ft 348 kts 229°
2026-05-07 20:31 51.86654 2.25028 26083 ft 346 kts 244°
2026-05-07 20:32 51.85829 2.21383 26095 ft 345 kts 254°
2026-05-07 20:32 51.85178 2.17649 26093 ft 345 kts 255°
2026-05-07 20:32 51.84526 2.13906 26098 ft 346 kts 254°
2026-05-07 20:32 51.83861 2.10169 26096 ft 346 kts 254°
2026-05-07 20:33 51.83185 2.06431 26095 ft 346 kts 253°
2026-05-07 20:33 51.82511 2.02742 26093 ft 346 kts 253°
2026-05-07 20:33 51.81827 1.99020 26094 ft 346 kts 253°
2026-05-07 20:33 51.81137 1.95285 26095 ft 346 kts 253°
2026-05-07 20:34 51.80447 1.91559 26101 ft 346 kts 253°
2026-05-07 20:34 51.79756 1.87844 26093 ft 345 kts 253°
2026-05-07 20:34 51.79064 1.84127 25686 ft 346 kts 253°
2026-05-07 20:34 51.78369 1.80404 25265 ft 344 kts 253°
2026-05-07 20:35 51.77679 1.76714 24866 ft 342 kts 253°
2026-05-07 20:35 51.76991 1.73049 24456 ft 340 kts 253°
2026-05-07 20:35 51.76308 1.69409 24049 ft 338 kts 253°
2026-05-07 20:35 51.75626 1.65788 23634 ft 337 kts 253°
2026-05-07 20:36 51.74977 1.62159 23148 ft 335 kts 256°
2026-05-07 20:36 51.74587 1.58512 22687 ft 333 kts 262°
2026-05-07 20:36 51.74337 1.54801 22200 ft 332 kts 263°
2026-05-07 20:36 51.74107 1.51110 21749 ft 330 kts 263°
2026-05-07 20:37 51.73875 1.47430 21292 ft 328 kts 263°
2026-05-07 20:37 51.73643 1.43776 20849 ft 326 kts 263°
2026-05-07 20:37 51.73408 1.40125 20396 ft 325 kts 263°
2026-05-07 20:37 51.73173 1.36513 19967 ft 323 kts 263°
2026-05-07 20:38 51.72938 1.32918 19542 ft 322 kts 263°
2026-05-07 20:38 51.72703 1.29339 19121 ft 320 kts 263°
2026-05-07 20:38 51.72467 1.25775 18707 ft 319 kts 263°
2026-05-07 20:38 51.72232 1.22230 18280 ft 317 kts 263°
2026-05-07 20:39 51.71996 1.18704 17809 ft 315 kts 263°
2026-05-07 20:39 51.71761 1.15193 17347 ft 314 kts 263°
2026-05-07 20:39 51.71527 1.11715 16911 ft 312 kts 262°
2026-05-07 20:39 51.71296 1.08296 16477 ft 310 kts 262°
2026-05-07 20:40 51.71058 1.04801 16036 ft 308 kts 262°
2026-05-07 20:40 51.70825 1.01382 15606 ft 306 kts 262°
2026-05-07 20:40 51.70595 0.98017 15188 ft 305 kts 262°
2026-05-07 20:40 51.70362 0.94628 14775 ft 303 kts 262°
2026-05-07 20:41 51.70134 0.91263 14373 ft 301 kts 262°
2026-05-07 20:41 51.69900 0.87905 13963 ft 300 kts 262°
2026-05-07 20:41 51.69666 0.84577 13510 ft 298 kts 262°
2026-05-07 20:41 51.69433 0.81267 13059 ft 297 kts 262°
2026-05-07 20:42 51.69200 0.77974 12618 ft 295 kts 262°
2026-05-07 20:42 51.68969 0.74700 12183 ft 293 kts 262°
2026-05-07 20:42 51.68816 0.72543 11901 ft 292 kts 262°
2026-05-07 20:42 51.68585 0.69302 11473 ft 290 kts 262°
2026-05-07 20:43 51.68359 0.66079 11051 ft 288 kts 262°
2026-05-07 20:43 51.68130 0.62878 10641 ft 287 kts 262°
2026-05-07 20:43 51.67899 0.59688 10236 ft 285 kts 262°
2026-05-07 20:43 51.67669 0.56519 9807 ft 283 kts 262°
2026-05-07 20:44 51.67443 0.53412 9360 ft 282 kts 262°
2026-05-07 20:44 51.67213 0.50247 8916 ft 280 kts 262°
2026-05-07 20:44 51.66988 0.47138 8472 ft 278 kts 262°
2026-05-07 20:44 51.66768 0.44111 8174 ft 273 kts 263°
2026-05-07 20:45 51.66543 0.41072 8092 ft 275 kts 263°
2026-05-07 20:45 51.66315 0.38004 8088 ft 275 kts 262°
2026-05-07 20:45 51.66088 0.34948 8087 ft 274 kts 262°
2026-05-07 20:45 51.65848 0.31903 8075 ft 274 kts 262°
2026-05-07 20:46 51.65632 0.28867 8076 ft 274 kts 264°
2026-05-07 20:46 51.65507 0.25797 8074 ft 274 kts 266°
2026-05-07 20:46 51.65418 0.23340 8075 ft 274 kts 266°
2026-05-07 20:47 51.65342 0.21096 8071 ft 271 kts 266°
2026-05-07 20:47 51.65239 0.18169 8065 ft 254 kts 266°
2026-05-07 20:47 51.65138 0.15326 8081 ft 263 kts 266°
2026-05-07 20:47 51.65030 0.12319 8079 ft 272 kts 265°
2026-05-07 20:48 51.64923 0.09263 8075 ft 274 kts 265°
2026-05-07 20:48 51.64814 0.06193 8076 ft 274 kts 266°
2026-05-07 20:48 51.64713 0.03136 8073 ft 273 kts 266°
2026-05-07 20:48 51.64609 0.00111 8074 ft 274 kts 266°
2026-05-07 20:49 51.64493 -0.02954 8071 ft 274 kts 266°
2026-05-07 20:49 51.64369 -0.06014 8072 ft 274 kts 266°
2026-05-07 20:49 51.64245 -0.09077 8073 ft 273 kts 266°
2026-05-07 20:49 51.64122 -0.12111 7867 ft 270 kts 266°
2026-05-07 20:50 51.63998 -0.15128 7401 ft 270 kts 266°
2026-05-07 20:50 51.63874 -0.18115 7122 ft 270 kts 266°
2026-05-07 20:50 51.63748 -0.21138 7072 ft 271 kts 266°
2026-05-07 20:50 51.63623 -0.24157 7073 ft 270 kts 266°
2026-05-07 20:51 51.63496 -0.27180 7034 ft 270 kts 266°
2026-05-07 20:51 51.63368 -0.30214 7059 ft 271 kts 266°
2026-05-07 20:51 51.63239 -0.33239 7072 ft 271 kts 266°
2026-05-07 20:51 51.63109 -0.36271 7115 ft 273 kts 266°
2026-05-07 20:52 51.62981 -0.39330 7082 ft 272 kts 265°
2026-05-07 20:52 51.62852 -0.42359 7078 ft 271 kts 265°
2026-05-07 20:52 51.62725 -0.45385 7074 ft 270 kts 266°
2026-05-07 20:52 51.62596 -0.48407 7076 ft 270 kts 265°
2026-05-07 20:53 51.62467 -0.51427 7076 ft 271 kts 266°
2026-05-07 20:53 51.62340 -0.54383 6856 ft 264 kts 266°
2026-05-07 20:53 51.62213 -0.57312 6670 ft 254 kts 266°
2026-05-07 20:53 51.62090 -0.60100 6499 ft 245 kts 266°
2026-05-07 20:54 51.61809 -0.62765 6216 ft 240 kts 253°
2026-05-07 20:54 51.61313 -0.65289 5875 ft 239 kts 251°
2026-05-07 20:54 51.60698 -0.67769 5506 ft 239 kts 243°
2026-05-07 20:54 51.59938 -0.70140 5143 ft 239 kts 241°
2026-05-07 20:55 51.59153 -0.72496 4810 ft 237 kts 240°
2026-05-07 20:55 51.58373 -0.74822 4475 ft 236 kts 240°
2026-05-07 20:55 51.57557 -0.77092 4171 ft 233 kts 232°
2026-05-07 20:55 51.56291 -0.78624 3996 ft 229 kts 198°
2026-05-07 20:56 51.54744 -0.79095 3802 ft 225 kts 183°
2026-05-07 20:56 51.53170 -0.79239 3444 ft 226 kts 181°
2026-05-07 20:56 51.51621 -0.79338 3273 ft 218 kts 181°
2026-05-07 20:56 51.50148 -0.79432 3174 ft 205 kts 180°
2026-05-07 20:57 51.48789 -0.79234 3024 ft 190 kts 158°
2026-05-07 20:57 51.47866 -0.77898 2988 ft 181 kts 117°
2026-05-07 20:57 51.47577 -0.76004 2983 ft 169 kts 93°
2026-05-07 20:57 51.47582 -0.74166 2986 ft 161 kts 91°
2026-05-07 20:58 51.47589 -0.72373 2986 ft 160 kts 90°
2026-05-07 20:58 51.47596 -0.70596 2859 ft 161 kts 91°
2026-05-07 20:58 51.47599 -0.68801 2642 ft 161 kts 91°
2026-05-07 20:58 51.47610 -0.67023 2409 ft 158 kts 91°
2026-05-07 20:59 51.47623 -0.65260 2192 ft 159 kts 91°
2026-05-07 20:59 51.47634 -0.63474 1973 ft 161 kts 91°
2026-05-07 20:59 51.47646 -0.61681 1753 ft 161 kts 92°
2026-05-07 20:59 51.47657 -0.59929 1512 ft 152 kts 91°
2026-05-07 21:00 51.47667 -0.58275 1293 ft 144 kts 92°
2026-05-07 21:00 51.47675 -0.56709 1071 ft 136 kts 91°
2026-05-07 21:00 51.47702 -0.55205 927 ft 136 kts 90°
2026-05-07 21:00 51.47728 -0.53694 676 ft 134 kts 92°
2026-05-07 21:01 51.47728 -0.52215 555 ft 131 kts 90°
2026-05-07 21:01 51.47744 -0.50732 384 ft 133 kts 92°
2026-05-07 21:01 51.47752 -0.49258 231 ft 131 kts 91°
2026-05-07 21:01 51.47762 -0.47801 98 ft 127 kts 91°
2026-05-07 21:02 51.47759 -0.46576 98 ft 78 kts 89°
2026-05-07 21:02 51.47761 -0.46180 95 ft 0 kts 89°
2026-05-07 21:02 51.47761 -0.46066 95 ft 29 kts 90°
2026-05-07 21:02 51.47761 -0.45597 94 ft 39 kts 91°
2026-05-07 21:03 51.47678 -0.45465 94 ft 14 kts 173°
2026-05-07 21:03 51.47577 -0.45454 92 ft 16 kts 181°